• In Netherlands
  • List of Countries
  • For 7 days
  • Water Temperature
  • Satellite Maps
  • Weather Map
  • Weather Widgets
  • user-avatar
    Login

    Hourly Weather Canberra

    Today, 22 September, Friday

    Time Temperature Precipitation Wind Pressure Humidity
    00:00 +10°C° 0 mm 2 mps 707 mmHg 65%
    01:00 +10°C° 0 mm 2 mps 707 mmHg 63%
    02:00 +10°C° 0 mm 2 mps 707 mmHg 62%
    03:00 +9°C° 0 mm 2 mps 706 mmHg 61%
    04:00 +9°C° 0 mm 2 mps 706 mmHg 61%
    05:00 +9°C° 0 mm 2 mps 706 mmHg 60%
    06:00 +10°C° 0 mm 2 mps 706 mmHg 58%
    07:00 +12°C° 0 mm 2 mps 707 mmHg 57%
    08:00 +15°C° 0 mm 2 mps 707 mmHg 49%
    09:00 +18°C° 0 mm 3 mps 707 mmHg 42%
    10:00 +21°C° 0 mm 4 mps 707 mmHg 35%
    11:00 +22°C° 0 mm 4 mps 707 mmHg 33%
    12:00 +23°C° 0 mm 4 mps 707 mmHg 32%
    13:00 +25°C° 0 mm 4 mps 706 mmHg 30%
    14:00 +25°C° 0 mm 4 mps 706 mmHg 34%
    15:00 +25°C° 0 mm 4 mps 706 mmHg 37%
    16:00 +24°C° 0 mm 3 mps 706 mmHg 40%
    17:00 +20°C° 0 mm 3 mps 705 mmHg 49%
    18:00 +18°C° 0 mm 2 mps 705 mmHg 57%
    19:00 +15°C° 0 mm 1 mps 705 mmHg 66%
    20:00 +15°C° 0 mm 1 mps 705 mmHg 65%
    21:00 +14°C° 0 mm 1 mps 705 mmHg 64%
    22:00 +13°C° 0 mm 1 mps 705 mmHg 63%
    23:00 +13°C° 0 mm 1 mps 704 mmHg 59%

    Tomorrow, 23 September, Saturday

    Time Temperature Precipitation Wind Pressure Humidity
    00:00 +13°C° 0 mm 2 mps 704 mmHg 56%
    01:00 +13°C° 0 mm 2 mps 704 mmHg 52%
    02:00 +13°C° 0 mm 2 mps 703 mmHg 49%
    03:00 +12°C° 0 mm 1 mps 703 mmHg 47%
    04:00 +12°C° 0 mm 1 mps 703 mmHg 45%
    05:00 +13°C° 0 mm 1 mps 703 mmHg 46%
    06:00 +13°C° 0 mm 1 mps 703 mmHg 46%
    07:00 +13°C° 0 mm 1 mps 703 mmHg 47%
    08:00 +17°C° 0 mm 2 mps 703 mmHg 42%
    09:00 +20°C° 0 mm 3 mps 703 mmHg 36%
    10:00 +23°C° 0 mm 4 mps 703 mmHg 31%
    11:00 +25°C° 0 mm 5 mps 702 mmHg 31%
    12:00 +27°C° 0 mm 6 mps 701 mmHg 31%
    13:00 +28°C° 0 mm 6 mps 701 mmHg 31%
    14:00 +28°C° 0 mm 6 mps 700 mmHg 32%
    15:00 +27°C° 0 mm 6 mps 699 mmHg 33%
    16:00 +27°C° 0 mm 6 mps 699 mmHg 34%
    17:00 +26°C° 0 mm 5 mps 698 mmHg 35%
    18:00 +25°C° 0 mm 4 mps 698 mmHg 35%
    19:00 +23°C° 0 mm 4 mps 698 mmHg 36%
    20:00 +22°C° 0 mm 3 mps 698 mmHg 38%
    21:00 +21°C° 0 mm 3 mps 698 mmHg 40%
    22:00 +19°C° 0 mm 3 mps 698 mmHg 43%
    23:00 +18°C° 0 mm 3 mps 699 mmHg 50%

    Day after tomorrow, 24 September, Sunday

    Time Temperature Precipitation Wind Pressure Humidity
    00:00 +17°C° 0 mm 3 mps 699 mmHg 57%
    01:00 +14°C° 0 mm 3 mps 699 mmHg 65%
    02:00 +13°C° 0 mm 3 mps 699 mmHg 68%
    03:00 +12°C° 0 mm 3 mps 699 mmHg 71%
    04:00 +11°C° 0 mm 3 mps 699 mmHg 74%
    05:00 +11°C° 0 mm 3 mps 699 mmHg 74%
    06:00 +11°C° 0 mm 3 mps 700 mmHg 74%
    07:00 +11°C° 0 mm 3 mps 700 mmHg 74%
    08:00 +13°C° 0 mm 5 mps 700 mmHg 63%
    09:00 +15°C° 0 mm 6 mps 700 mmHg 52%
    10:00 +17°C° 0 mm 8 mps 700 mmHg 42%
    11:00 +17°C° 0 mm 8 mps 700 mmHg 42%
    12:00 +17°C° 0 mm 8 mps 700 mmHg 42%
    13:00 +17°C° 0 mm 8 mps 699 mmHg 42%
    14:00 +17°C° 0 mm 8 mps 699 mmHg 41%
    15:00 +17°C° 0 mm 8 mps 699 mmHg 40%
    16:00 +18°C° 0 mm 7 mps 699 mmHg 39%
    17:00 +16°C° 0 mm 6 mps 699 mmHg 42%
    18:00 +14°C° 0 mm 5 mps 700 mmHg 45%
    19:00 +13°C° 0 mm 4 mps 700 mmHg 48%
    20:00 +12°C° 0 mm 4 mps 701 mmHg 50%
    21:00 +11°C° 0 mm 4 mps 701 mmHg 51%
    22:00 +11°C° 0 mm 4 mps 702 mmHg 53%
    23:00 +10°C° 0 mm 4 mps 702 mmHg 55%

    25 September, Monday

    Time Temperature Precipitation Wind Pressure Humidity
    00:00 +10°C° 0 mm 4 mps 702 mmHg 57%
    01:00 +8°C° 0 mm 4 mps 702 mmHg 59%
    02:00 +8°C° 0 mm 4 mps 702 mmHg 62%
    03:00 +7°C° 0 mm 4 mps 702 mmHg 65%
    04:00 +7°C° 0 mm 5 mps 702 mmHg 69%
    05:00 +7°C° 0 mm 5 mps 702 mmHg 69%
    06:00 +7°C° 0 mm 5 mps 703 mmHg 69%
    07:00 +7°C° 0 mm 5 mps 703 mmHg 70%
    08:00 +9°C° 0 mm 5 mps 703 mmHg 64%
    09:00 +10°C° 0 mm 6 mps 703 mmHg 57%
    10:00 +12°C° 0 mm 7 mps 704 mmHg 51%
    11:00 +12°C° 0 mm 7 mps 704 mmHg 52%
    12:00 +12°C° 0 mm 7 mps 703 mmHg 53%
    13:00 +12°C° 0 mm 7 mps 703 mmHg 53%
    14:00 +12°C° 0.1 mm 7 mps 703 mmHg 54%
    15:00 +13°C° 0.1 mm 6 mps 703 mmHg 55%
    16:00 +13°C° 0.1 mm 6 mps 703 mmHg 55%
    17:00 +12°C° 0 mm 5 mps 703 mmHg 59%
    18:00 +11°C° 0 mm 4 mps 704 mmHg 63%
    19:00 +8°C° 0 mm 4 mps 704 mmHg 67%
    20:00 +9°C° 0 mm 3 mps 704 mmHg 70%
    21:00 +8°C° 0 mm 3 mps 705 mmHg 73%
    22:00 +7°C° 0 mm 3 mps 705 mmHg 76%
    23:00 +7°C° 0 mm 2 mps 705 mmHg 80%

    26 September, Tuesday

    Time Temperature Precipitation Wind Pressure Humidity
    00:00 +6°C° 0 mm 2 mps 705 mmHg 83%
    01:00 +5°C° 0 mm 2 mps 705 mmHg 87%
    02:00 +5°C° 0 mm 2 mps 705 mmHg 88%
    03:00 +5°C° 0 mm 2 mps 704 mmHg 88%
    04:00 +4°C° 0 mm 2 mps 704 mmHg 89%
    05:00 +5°C° 0 mm 2 mps 705 mmHg 85%
    06:00 +5°C° 0 mm 2 mps 705 mmHg 81%
    07:00 +6°C° 0 mm 2 mps 705 mmHg 77%
    08:00 +8°C° 0 mm 3 mps 705 mmHg 66%
    09:00 +9°C° 0 mm 5 mps 705 mmHg 55%
    10:00 +11°C° 0 mm 6 mps 706 mmHg 44%
    11:00 +12°C° 0 mm 7 mps 705 mmHg 42%
    12:00 +12°C° 0 mm 7 mps 705 mmHg 39%
    13:00 +12°C° 0 mm 7 mps 705 mmHg 37%
    14:00 +11°C° 0.1 mm 7 mps 705 mmHg 41%
    15:00 +10°C° 0.1 mm 6 mps 705 mmHg 45%
    16:00 +9°C° 0.1 mm 5 mps 706 mmHg 50%
    17:00 +7°C° 0 mm 4 mps 706 mmHg 58%
    18:00 +5°C° 0 mm 3 mps 707 mmHg 66%
    19:00 +4°C° 0 mm 2 mps 708 mmHg 74%
    20:00 +3°C° 0 mm 2 mps 708 mmHg 78%
    21:00 +4°C° 0 mm 1 mps 708 mmHg 81%
    22:00 +3°C° 0 mm 1 mps 709 mmHg 85%
    23:00 +2°C° 0 mm 1 mps 709 mmHg 86%

    27 September, Wednesday

    Time Temperature Precipitation Wind Pressure Humidity
    00:00 +2°C° 0 mm 1 mps 709 mmHg 87%
    01:00 +2°C° 0 mm 1 mps 710 mmHg 88%
    02:00 +1°C° 0 mm 1 mps 710 mmHg 88%
    03:00 +1°C° 0 mm 1 mps 710 mmHg 88%
    04:00 +1°C° 0 mm 1 mps 710 mmHg 88%
    05:00 +2°C° 0 mm 1 mps 711 mmHg 81%
    06:00 +3°C° 0 mm 1 mps 711 mmHg 75%
    07:00 +4°C° 0 mm 1 mps 712 mmHg 68%
    08:00 +7°C° 0 mm 1 mps 712 mmHg 56%
    09:00 +10°C° 0 mm 1 mps 712 mmHg 44%
    10:00 +14°C° 0 mm 2 mps 712 mmHg 32%
    11:00 +15°C° 0 mm 2 mps 712 mmHg 31%
    12:00 +16°C° 0 mm 2 mps 712 mmHg 29%
    13:00 +17°C° 0 mm 2 mps 711 mmHg 28%
    14:00 +17°C° 0 mm 2 mps 711 mmHg 30%
    15:00 +17°C° 0 mm 2 mps 711 mmHg 32%
    16:00 +17°C° 0 mm 2 mps 710 mmHg 34%
    17:00 +15°C° 0 mm 2 mps 710 mmHg 44%
    18:00 +12°C° 0 mm 1 mps 711 mmHg 54%
    19:00 +9°C° 0 mm 1 mps 711 mmHg 64%
    20:00 +9°C° 0 mm 1 mps 711 mmHg 69%
    21:00 +8°C° 0 mm 1 mps 711 mmHg 74%
    22:00 +7°C° 0 mm 1 mps 711 mmHg 79%
    23:00 +8°C° 0 mm 1 mps 710 mmHg 79%
    Show more